Wetterdaten: Samstag, 01.05.2021
Datum Zeit Temp. I. Temp. A. Boden 5 cm Feuchte I. Feuchte A. Sonne Luftdruck Regen Wind Zeit Regen
01.05.2021 00:00 22,3 C 9,4 C 7,5 C 45 % 84 % 15 % 1007 hPa 0,0 l/m 16,8 km/h (3 Bft) 0 min
01.05.2021 00:15 22,3 C 9,4 C 7,5 C 45 % 84 % 15 % 1007 hPa 0,0 l/m 9,2 km/h (2 Bft) 0 min
01.05.2021 00:18 22,3 C 9,4 C 7,5 C 45 % 84 % 15 % 1007 hPa 0,0 l/m 5,9 km/h (2 Bft) 0 min
01.05.2021 00:21 22,3 C 9,4 C 7,3 C 45 % 84 % 15 % 1007 hPa 0,0 l/m 9,6 km/h (2 Bft) 0 min
01.05.2021 00:24 22,3 C 9,4 C 7,2 C 45 % 84 % 15 % 1007 hPa 0,0 l/m 11,3 km/h (2 Bft) 0 min
01.05.2021 00:27 22,3 C 9,3 C 7,2 C 45 % 84 % 15 % 1007 hPa 0,0 l/m 11,6 km/h (2 Bft) 0 min
01.05.2021 00:30 22,4 C 9,3 C 7,1 C 45 % 84 % 15 % 1007 hPa 0,0 l/m 11,4 km/h (2 Bft) 0 min
01.05.2021 00:33 22,3 C 9,3 C 7,1 C 45 % 84 % 15 % 1007 hPa 0,0 l/m 7,9 km/h (2 Bft) 0 min
01.05.2021 00:36 22,4 C 9,2 C 7,1 C 45 % 84 % 15 % 1007 hPa 0,0 l/m 10,0 km/h (2 Bft) 0 min
01.05.2021 00:39 22,4 C 9,2 C 7,0 C 45 % 84 % 15 % 1007 hPa 0,0 l/m 6,8 km/h (2 Bft) 0 min
01.05.2021 00:42 22,4 C 9,2 C 7,0 C 45 % 84 % 15 % 1007 hPa 0,0 l/m 9,7 km/h (2 Bft) 0 min
01.05.2021 00:45 22,3 C 9,2 C 7,0 C 45 % 84 % 15 % 1008 hPa 0,0 l/m 6,4 km/h (2 Bft) 0 min
01.05.2021 00:48 22,3 C 9,2 C 7,0 C 45 % 84 % 15 % 1008 hPa 0,0 l/m 10,5 km/h (2 Bft) 0 min
01.05.2021 00:51 22,3 C 9,2 C 7,0 C 45 % 84 % 15 % 1008 hPa 0,0 l/m 7,1 km/h (2 Bft) 0 min
01.05.2021 00:54 22,3 C 9,2 C 7,0 C 45 % 84 % 15 % 1008 hPa 0,0 l/m 3,2 km/h (1 Bft) 0 min
01.05.2021 00:57 22,3 C 9,2 C 6,8 C 45 % 84 % 15 % 1008 hPa 0,0 l/m 8,5 km/h (2 Bft) 0 min
01.05.2021 01:00 22,3 C 9,2 C 6,9 C 45 % 84 % 15 % 1008 hPa 0,0 l/m 8,2 km/h (2 Bft) 0 min
01.05.2021 01:03 22,3 C 9,2 C 6,9 C 45 % 84 % 15 % 1008 hPa 0,0 l/m 2,9 km/h (1 Bft) 0 min
01.05.2021 01:06 22,3 C 9,2 C 6,9 C 45 % 84 % 15 % 1008 hPa 0,0 l/m 4,8 km/h (1 Bft) 0 min
01.05.2021 01:09 22,3 C 9,2 C 6,8 C 45 % 84 % 15 % 1008 hPa 0,0 l/m 8,5 km/h (2 Bft) 0 min
01.05.2021 01:12 22,3 C 9,1 C 6,7 C 45 % 84 % 15 % 1008 hPa 0,0 l/m 11,6 km/h (2 Bft) 0 min
01.05.2021 01:15 22,3 C 9,1 C 6,7 C 45 % 84 % 15 % 1008 hPa 0,0 l/m 11,6 km/h (2 Bft) 0 min
01.05.2021 01:18 22,3 C 9,2 C 6,8 C 45 % 84 % 15 % 1008 hPa 0,0 l/m 7,9 km/h (2 Bft) 0 min
01.05.2021 01:21 22,2 C 9,1 C 6,9 C 45 % 84 % 15 % 1008 hPa 0,0 l/m 5,3 km/h (1 Bft) 0 min
01.05.2021 01:24 22,2 C 9,1 C 6,8 C 45 % 84 % 15 % 1008 hPa 0,0 l/m 4,4 km/h (1 Bft) 0 min
01.05.2021 01:27 22,3 C 9,1 C 6,6 C 45 % 84 % 15 % 1008 hPa 0,0 l/m 5,8 km/h (2 Bft) 0 min
01.05.2021 01:30 22,2 C 9,1 C 6,5 C 45 % 84 % 15 % 1008 hPa 0,0 l/m 5,8 km/h (2 Bft) 0 min
01.05.2021 01:33 22,2 C 9,1 C 6,5 C 45 % 84 % 15 % 1008 hPa 0,0 l/m 8,1 km/h (2 Bft) 0 min
01.05.2021 01:36 22,2 C 9,1 C 6,5 C 45 % 84 % 15 % 1008 hPa 0,0 l/m 12,5 km/h (3 Bft) 0 min
01.05.2021 01:39 22,2 C 9,1 C 6,5 C 45 % 84 % 15 % 1008 hPa 0,0 l/m 8,1 km/h (2 Bft) 0 min
01.05.2021 01:42 22,2 C 9,1 C 6,6 C 45 % 84 % 15 % 1008 hPa 0,0 l/m 7,7 km/h (2 Bft) 0 min
01.05.2021 01:45 22,2 C 9,1 C 6,6 C 45 % 84 % 15 % 1008 hPa 0,0 l/m 8,4 km/h (2 Bft) 0 min
01.05.2021 01:48 22,2 C 9,1 C 6,6 C 45 % 84 % 15 % 1008 hPa 0,0 l/m 8,4 km/h (2 Bft) 0 min
01.05.2021 01:51 22,2 C 9,1 C 6,7 C 45 % 84 % 15 % 1008 hPa 0,0 l/m 5,8 km/h (2 Bft) 0 min
01.05.2021 01:54 22,2 C 9,1 C 6,5 C 45 % 84 % 15 % 1008 hPa 0,0 l/m 11,5 km/h (2 Bft) 0 min
01.05.2021 01:57 22,2 C 9,1 C 6,6 C 45 % 84 % 15 % 1008 hPa 0,0 l/m 5,2 km/h (1 Bft) 0 min
01.05.2021 02:00 22,2 C 9,1 C 6,9 C 45 % 84 % 15 % 1008 hPa 0,0 l/m 2,2 km/h (1 Bft) 0 min
01.05.2021 02:03 22,2 C 9,1 C 6,7 C 45 % 84 % 15 % 1008 hPa 0,0 l/m 3,9 km/h (1 Bft) 0 min
01.05.2021 02:06 22,2 C 9,1 C 6,6 C 45 % 84 % 15 % 1008 hPa 0,0 l/m 4,3 km/h (1 Bft) 0 min
01.05.2021 02:09 22,2 C 9,1 C 6,6 C 45 % 84 % 15 % 1008 hPa 0,0 l/m 7,0 km/h (2 Bft) 0 min
01.05.2021 02:12 22,2 C 9,1 C 6,6 C 45 % 84 % 15 % 1008 hPa 0,0 l/m 7,0 km/h (2 Bft) 0 min
01.05.2021 02:15 22,2 C 9,1 C 6,5 C 45 % 84 % 15 % 1008 hPa 0,0 l/m 11,5 km/h (2 Bft) 0 min
01.05.2021 02:18 22,2 C 9,1 C 6,6 C 45 % 84 % 15 % 1008 hPa 0,0 l/m 5,9 km/h (2 Bft) 0 min
01.05.2021 02:21 22,2 C 9,1 C 6,6 C 45 % 84 % 15 % 1008 hPa 0,0 l/m 7,8 km/h (2 Bft) 0 min
01.05.2021 02:24 22,2 C 9,1 C 6,6 C 45 % 84 % 15 % 1008 hPa 0,0 l/m 0,6 km/h (0 Bft) 0 min
01.05.2021 02:27 22,2 C 9,1 C 6,6 C 45 % 84 % 15 % 1008 hPa 0,0 l/m 7,4 km/h (2 Bft) 0 min
01.05.2021 02:30 22,2 C 9,1 C 6,5 C 45 % 84 % 15 % 1008 hPa 0,0 l/m 5,9 km/h (2 Bft) 0 min
01.05.2021 02:33 22,2 C 9,1 C 6,6 C 45 % 84 % 15 % 1008 hPa 0,0 l/m 5,9 km/h (2 Bft) 0 min
01.05.2021 02:36 22,2 C 9,0 C 6,6 C 45 % 84 % 15 % 1008 hPa 0,0 l/m 11,0 km/h (2 Bft) 0 min
01.05.2021 02:39 22,2 C 9,0 C 6,5 C 45 % 84 % 15 % 1008 hPa 0,0 l/m 9,9 km/h (2 Bft) 0 min
01.05.2021 02:42 22,2 C 9,0 C 6,5 C 45 % 84 % 15 % 1008 hPa 0,0 l/m 8,5 km/h (2 Bft) 0 min
01.05.2021 02:45 22,2 C 9,0 C 6,6 C 45 % 84 % 15 % 1008 hPa 0,0 l/m 9,3 km/h (2 Bft) 0 min
01.05.2021 02:48 22,2 C 9,0 C 6,5 C 45 % 84 % 15 % 1008 hPa 0,0 l/m 5,9 km/h (2 Bft) 0 min
01.05.2021 02:51 22,2 C 9,0 C 6,6 C 45 % 84 % 15 % 1008 hPa 0,0 l/m 1,0 km/h (0 Bft) 0 min
01.05.2021 02:54 22,2 C 9,0 C 6,6 C 45 % 84 % 15 % 1008 hPa 0,0 l/m 1,3 km/h (1 Bft) 0 min
01.05.2021 02:57 22,2 C 9,0 C 6,6 C 45 % 84 % 15 % 1008 hPa 0,0 l/m 4,2 km/h (1 Bft) 0 min
01.05.2021 03:00 22,2 C 9,0 C 6,5 C 45 % 84 % 15 % 1008 hPa 0,0 l/m 4,2 km/h (1 Bft) 0 min
01.05.2021 03:03 22,2 C 9,0 C 6,6 C 45 % 84 % 15 % 1008 hPa 0,0 l/m 1,5 km/h (1 Bft) 0 min
01.05.2021 03:06 22,2 C 9,0 C 6,7 C 45 % 84 % 15 % 1008 hPa 0,0 l/m 0,9 km/h (0 Bft) 0 min
01.05.2021 03:09 22,2 C 9,0 C 6,7 C 45 % 84 % 15 % 1008 hPa 0,0 l/m 0,9 km/h (0 Bft) 0 min
01.05.2021 03:12 22,2 C 9,0 C 6,6 C 45 % 84 % 15 % 1008 hPa 0,0 l/m 3,7 km/h (1 Bft) 0 min
01.05.2021 03:15 22,2 C 9,0 C 6,6 C 45 % 84 % 15 % 1008 hPa 0,0 l/m 3,0 km/h (1 Bft) 0 min
01.05.2021 03:18 22,2 C 8,9 C 6,6 C 45 % 84 % 15 % 1008 hPa 0,0 l/m 0,8 km/h (0 Bft) 0 min
01.05.2021 03:21 22,2 C 8,9 C 6,5 C 45 % 84 % 15 % 1008 hPa 0,0 l/m 4,6 km/h (1 Bft) 0 min
01.05.2021 03:24 22,2 C 8,9 C 6,6 C 45 % 84 % 15 % 1008 hPa 0,0 l/m 2,1 km/h (1 Bft) 0 min
01.05.2021 03:27 22,2 C 9,0 C 6,5 C 45 % 84 % 15 % 1008 hPa 0,0 l/m 4,0 km/h (1 Bft) 0 min
01.05.2021 03:30 22,2 C 9,0 C 6,6 C 45 % 84 % 15 % 1008 hPa 0,0 l/m 5,3 km/h (1 Bft) 0 min
01.05.2021 03:33 22,2 C 8,9 C 6,6 C 45 % 84 % 15 % 1008 hPa 0,0 l/m 1,4 km/h (1 Bft) 0 min
01.05.2021 03:36 22,2 C 9,0 C 6,5 C 45 % 84 % 15 % 1008 hPa 0,0 l/m 5,6 km/h (1 Bft) 0 min
01.05.2021 03:39 22,2 C 8,9 C 6,6 C 45 % 84 % 15 % 1008 hPa 0,0 l/m 2,9 km/h (1 Bft) 0 min
01.05.2021 03:42 22,2 C 9,0 C 6,6 C 45 % 84 % 15 % 1008 hPa 0,0 l/m 0,0 km/h (0 Bft) 0 min
01.05.2021 03:45 22,2 C 9,0 C 6,7 C 45 % 84 % 15 % 1008 hPa 0,0 l/m 0,0 km/h (0 Bft) 0 min
01.05.2021 03:48 22,2 C 8,9 C 6,6 C 45 % 84 % 15 % 1008 hPa 0,0 l/m 0,2 km/h (0 Bft) 0 min
01.05.2021 03:51 22,2 C 9,0 C 6,6 C 45 % 84 % 15 % 1008 hPa 0,0 l/m 0,1 km/h (0 Bft) 0 min
01.05.2021 03:53 22,1 C 8,9 C 6,5 C 45 % 84 % 15 % 1008 hPa 0,0 l/m 0,9 km/h (0 Bft) 0 min
01.05.2021 03:56 22,2 C 8,9 C 6,6 C 45 % 84 % 15 % 1008 hPa 0,0 l/m 0,2 km/h (0 Bft) 0 min
01.05.2021 03:59 22,2 C 8,9 C 6,6 C 45 % 84 % 15 % 1008 hPa 0,0 l/m 0,6 km/h (0 Bft) 0 min
01.05.2021 04:02 22,2 C 8,9 C 6,4 C 45 % 84 % 15 % 1008 hPa 0,0 l/m 9,4 km/h (2 Bft) 0 min
01.05.2021 04:05 22,2 C 8,9 C 6,4 C 45 % 84 % 15 % 1008 hPa 0,0 l/m 6,7 km/h (2 Bft) 0 min
01.05.2021 04:08 22,2 C 8,9 C 6,5 C 45 % 84 % 15 % 1008 hPa 0,0 l/m 11,6 km/h (2 Bft) 0 min
01.05.2021 04:11 22,1 C 8,9 C 6,3 C 45 % 84 % 15 % 1008 hPa 0,0 l/m 11,8 km/h (2 Bft) 0 min
01.05.2021 04:14 22,1 C 8,9 C 6,3 C 45 % 84 % 15 % 1008 hPa 0,0 l/m 10,9 km/h (2 Bft) 0 min
01.05.2021 04:17 22,2 C 8,9 C 6,3 C 45 % 84 % 15 % 1008 hPa 0,0 l/m 8,3 km/h (2 Bft) 0 min
01.05.2021 04:20 22,1 C 8,9 C 6,3 C 45 % 84 % 15 % 1008 hPa 0,0 l/m 13,0 km/h (3 Bft) 0 min
01.05.2021 04:23 22,1 C 8,8 C 6,3 C 45 % 84 % 15 % 1008 hPa 0,0 l/m 9,5 km/h (2 Bft) 0 min
01.05.2021 04:26 22,2 C 8,8 C 6,3 C 45 % 84 % 15 % 1008 hPa 0,0 l/m 10,7 km/h (2 Bft) 0 min
01.05.2021 04:29 22,1 C 8,8 C 6,3 C 45 % 84 % 15 % 1008 hPa 0,0 l/m 10,6 km/h (2 Bft) 0 min
01.05.2021 04:32 22,1 C 8,8 C 6,2 C 45 % 84 % 15 % 1008 hPa 0,0 l/m 5,2 km/h (1 Bft) 0 min
01.05.2021 04:35 22,1 C 8,8 C 6,3 C 45 % 84 % 15 % 1008 hPa 0,0 l/m 4,0 km/h (1 Bft) 0 min
01.05.2021 04:38 22,1 C 8,7 C 6,3 C 45 % 84 % 15 % 1008 hPa 0,0 l/m 0,3 km/h (0 Bft) 0 min
01.05.2021 04:41 22,1 C 8,7 C 6,4 C 45 % 84 % 15 % 1008 hPa 0,0 l/m 0,0 km/h (0 Bft) 0 min
01.05.2021 04:44 22,1 C 8,7 C 6,4 C 45 % 84 % 15 % 1008 hPa 0,0 l/m 0,3 km/h (0 Bft) 0 min
01.05.2021 04:47 22,1 C 8,6 C 6,3 C 45 % 84 % 15 % 1008 hPa 0,0 l/m 0,6 km/h (0 Bft) 0 min
01.05.2021 04:50 22,1 C 8,6 C 6,3 C 45 % 84 % 15 % 1008 hPa 0,0 l/m 1,9 km/h (1 Bft) 0 min
01.05.2021 04:54 22,1 C 8,6 C 6,2 C 45 % 84 % 15 % 1008 hPa 0,0 l/m 9,9 km/h (2 Bft) 0 min
01.05.2021 04:57 22,1 C 8,6 C 6,3 C 45 % 84 % 15 % 1008 hPa 0,0 l/m 4,0 km/h (1 Bft) 0 min
01.05.2021 05:00 22,1 C 8,6 C 6,3 C 45 % 84 % 15 % 1008 hPa 0,0 l/m 5,7 km/h (1 Bft) 0 min
01.05.2021 05:03 22,1 C 8,6 C 6,1 C 45 % 84 % 15 % 1008 hPa 0,0 l/m 10,5 km/h (2 Bft) 0 min
01.05.2021 05:06 22,1 C 8,6 C 6,2 C 45 % 85 % 15 % 1008 hPa 0,0 l/m 8,7 km/h (2 Bft) 0 min
01.05.2021 05:09 22,1 C 8,6 C 6,2 C 45 % 85 % 15 % 1008 hPa 0,0 l/m 7,4 km/h (2 Bft) 0 min
01.05.2021 05:12 22,1 C 8,6 C 6,2 C 45 % 85 % 15 % 1008 hPa 0,0 l/m 10,0 km/h (2 Bft) 0 min
01.05.2021 05:15 22,1 C 8,5 C 6,2 C 45 % 85 % 15 % 1008 hPa 0,0 l/m 5,7 km/h (1 Bft) 0 min
01.05.2021 05:18 22,1 C 8,5 C 6,1 C 45 % 85 % 15 % 1008 hPa 0,0 l/m 5,6 km/h (1 Bft) 0 min
01.05.2021 05:21 22,1 C 8,5 C 6,1 C 45 % 84 % 15 % 1008 hPa 0,0 l/m 8,4 km/h (2 Bft) 0 min
01.05.2021 05:24 22,1 C 8,5 C 6,1 C 45 % 84 % 15 % 1008 hPa 0,0 l/m 6,3 km/h (2 Bft) 0 min
01.05.2021 05:27 22,1 C 8,5 C 6,2 C 45 % 84 % 15 % 1008 hPa 0,0 l/m 5,6 km/h (1 Bft) 0 min
01.05.2021 05:30 22,1 C 8,4 C 6,2 C 45 % 84 % 15 % 1008 hPa 0,0 l/m 5,4 km/h (1 Bft) 0 min
01.05.2021 05:33 22,1 C 8,4 C 6,2 C 45 % 85 % 15 % 1008 hPa 0,0 l/m 7,4 km/h (2 Bft) 0 min
01.05.2021 05:36 22,1 C 8,4 C 6,2 C 45 % 85 % 15 % 1008 hPa 0,0 l/m 6,7 km/h (2 Bft) 0 min
01.05.2021 05:39 22,1 C 8,4 C 6,2 C 45 % 84 % 15 % 1008 hPa 0,0 l/m 4,0 km/h (1 Bft) 0 min
01.05.2021 05:42 22,1 C 8,4 C 6,2 C 45 % 84 % 15 % 1008 hPa 0,0 l/m 4,4 km/h (1 Bft) 0 min
01.05.2021 05:45 22,1 C 8,4 C 6,2 C 45 % 85 % 15 % 1008 hPa 0,0 l/m 5,7 km/h (1 Bft) 0 min
01.05.2021 05:48 22,1 C 8,4 C 6,2 C 45 % 84 % 15 % 1008 hPa 0,0 l/m 7,2 km/h (2 Bft) 0 min
01.05.2021 05:51 22,1 C 8,4 C 6,1 C 45 % 84 % 15 % 1008 hPa 0,0 l/m 4,6 km/h (1 Bft) 0 min
01.05.2021 05:54 22,1 C 8,4 C 6,2 C 45 % 84 % 15 % 1008 hPa 0,0 l/m 4,8 km/h (1 Bft) 0 min
01.05.2021 05:57 22,1 C 8,4 C 6,1 C 45 % 84 % 15 % 1008 hPa 0,0 l/m 6,1 km/h (2 Bft) 0 min
01.05.2021 06:00 22,1 C 8,4 C 6,2 C 45 % 84 % 15 % 1008 hPa 0,0 l/m 1,0 km/h (0 Bft) 0 min
01.05.2021 06:03 22,1 C 8,4 C 6,2 C 45 % 84 % 15 % 1008 hPa 0,0 l/m 4,0 km/h (1 Bft) 0 min
01.05.2021 06:06 22,1 C 8,4 C 6,2 C 45 % 84 % 15 % 1008 hPa 0,0 l/m 5,2 km/h (1 Bft) 0 min
01.05.2021 06:09 22,1 C 8,4 C 6,1 C 45 % 84 % 15 % 1008 hPa 0,0 l/m 5,9 km/h (2 Bft) 0 min
01.05.2021 06:12 22,1 C 8,4 C 6,1 C 45 % 84 % 15 % 1008 hPa 0,0 l/m 5,5 km/h (1 Bft) 0 min
01.05.2021 06:15 22,1 C 8,4 C 6,1 C 45 % 84 % 15 % 1008 hPa 0,0 l/m 5,5 km/h (1 Bft) 0 min
01.05.2021 06:18 22,1 C 8,4 C 6,1 C 45 % 84 % 15 % 1008 hPa 0,0 l/m 6,1 km/h (2 Bft) 0 min
01.05.2021 06:21 22,1 C 8,4 C 6,1 C 45 % 84 % 15 % 1008 hPa 0,0 l/m 4,5 km/h (1 Bft) 0 min
01.05.2021 06:24 22,1 C 8,4 C 6,3 C 45 % 84 % 15 % 1008 hPa 0,0 l/m 0,6 km/h (0 Bft) 0 min
01.05.2021 06:27 22,1 C 8,4 C 6,3 C 45 % 84 % 15 % 1008 hPa 0,0 l/m 0,5 km/h (0 Bft) 0 min
01.05.2021 06:30 22,1 C 8,5 C 6,2 C 45 % 84 % 15 % 1008 hPa 0,0 l/m 0,1 km/h (0 Bft) 0 min
01.05.2021 06:33 22,1 C 8,5 C 6,3 C 45 % 84 % 15 % 1008 hPa 0,0 l/m 0,1 km/h (0 Bft) 0 min
01.05.2021 06:36 22,1 C 8,4 C 6,2 C 45 % 84 % 15 % 1008 hPa 0,0 l/m 0,1 km/h (0 Bft) 0 min
01.05.2021 06:39 22,1 C 8,4 C 6,3 C 45 % 84 % 15 % 1008 hPa 0,0 l/m 0,5 km/h (0 Bft) 0 min
01.05.2021 06:42 22,1 C 8,5 C 6,3 C 45 % 84 % 15 % 1008 hPa 0,0 l/m 0,1 km/h (0 Bft) 0 min
01.05.2021 06:45 22,0 C 8,5 C 6,4 C 45 % 84 % 15 % 1008 hPa 0,0 l/m 0,0 km/h (0 Bft) 0 min
01.05.2021 06:48 22,0 C 8,5 C 6,4 C 45 % 84 % 15 % 1008 hPa 0,0 l/m 0,0 km/h (0 Bft) 0 min
01.05.2021 06:51 22,1 C 8,5 C 6,5 C 45 % 84 % 15 % 1008 hPa 0,0 l/m 0,0 km/h (0 Bft) 0 min
01.05.2021 06:54 22,1 C 8,6 C 6,5 C 45 % 84 % 15 % 1008 hPa 0,0 l/m 0,0 km/h (0 Bft) 0 min
01.05.2021 06:57 22,1 C 8,6 C 6,5 C 45 % 84 % 15 % 1008 hPa 0,0 l/m 0,0 km/h (0 Bft) 0 min
01.05.2021 07:00 22,1 C 8,6 C 6,5 C 45 % 84 % 15 % 1008 hPa 0,0 l/m 0,0 km/h (0 Bft) 0 min
01.05.2021 07:03 22,1 C 8,5 C 6,6 C 45 % 84 % 15 % 1008 hPa 0,0 l/m 0,0 km/h (0 Bft) 0 min
01.05.2021 07:06 22,1 C 8,5 C 6,5 C 45 % 84 % 15 % 1008 hPa 0,0 l/m 0,2 km/h (0 Bft) 0 min
01.05.2021 07:09 22,1 C 8,6 C 6,5 C 45 % 84 % 15 % 1008 hPa 0,0 l/m 3,4 km/h (1 Bft) 0 min
01.05.2021 07:12 22,1 C 8,6 C 6,5 C 45 % 84 % 15 % 1008 hPa 0,0 l/m 4,1 km/h (1 Bft) 0 min
01.05.2021 07:15 22,1 C 8,6 C 6,4 C 45 % 84 % 15 % 1008 hPa 0,0 l/m 3,7 km/h (1 Bft) 0 min
01.05.2021 07:18 22,1 C 8,6 C 6,5 C 45 % 84 % 15 % 1008 hPa 0,0 l/m 2,7 km/h (1 Bft) 0 min
01.05.2021 07:21 22,1 C 8,7 C 6,5 C 45 % 84 % 15 % 1008 hPa 0,0 l/m 0,6 km/h (0 Bft) 0 min
01.05.2021 07:24 22,1 C 8,7 C 6,3 C 45 % 84 % 15 % 1008 hPa 0,0 l/m 3,7 km/h (1 Bft) 0 min
01.05.2021 07:27 22,1 C 8,7 C 6,4 C 45 % 84 % 15 % 1008 hPa 0,0 l/m 5,4 km/h (1 Bft) 0 min
01.05.2021 07:30 22,1 C 8,7 C 6,3 C 45 % 84 % 15 % 1008 hPa 0,0 l/m 6,8 km/h (2 Bft) 0 min
01.05.2021 07:33 22,1 C 8,8 C 6,2 C 45 % 84 % 15 % 1008 hPa 0,0 l/m 8,7 km/h (2 Bft) 0 min
01.05.2021 07:36 22,0 C 8,7 C 6,3 C 45 % 84 % 15 % 1008 hPa 0,0 l/m 5,1 km/h (1 Bft) 0 min
01.05.2021 07:39 22,1 C 8,8 C 6,4 C 45 % 84 % 15 % 1008 hPa 0,0 l/m 2,1 km/h (1 Bft) 0 min
01.05.2021 07:42 22,0 C 8,8 C 6,4 C 45 % 84 % 15 % 1008 hPa 0,0 l/m 2,1 km/h (1 Bft) 0 min
01.05.2021 07:45 22,0 C 8,8 C 6,3 C 45 % 84 % 15 % 1008 hPa 0,0 l/m 5,7 km/h (1 Bft) 0 min
01.05.2021 07:48 22,0 C 8,8 C 6,3 C 45 % 84 % 15 % 1009 hPa 0,0 l/m 0,6 km/h (0 Bft) 0 min
01.05.2021 07:51 22,1 C 8,8 C 6,4 C 45 % 84 % 15 % 1009 hPa 0,0 l/m 0,6 km/h (0 Bft) 0 min
01.05.2021 07:54 22,1 C 8,8 C 6,3 C 45 % 84 % 15 % 1009 hPa 0,0 l/m 4,0 km/h (1 Bft) 0 min
01.05.2021 07:57 22,1 C 8,8 C 6,3 C 45 % 84 % 15 % 1009 hPa 0,0 l/m 3,2 km/h (1 Bft) 0 min
01.05.2021 08:00 22,0 C 8,8 C 6,3 C 45 % 84 % 15 % 1009 hPa 0,0 l/m 5,7 km/h (1 Bft) 0 min
01.05.2021 08:03 22,1 C 8,8 C 6,3 C 45 % 84 % 15 % 1009 hPa 0,0 l/m 3,7 km/h (1 Bft) 0 min
01.05.2021 08:06 22,1 C 8,9 C 6,4 C 45 % 84 % 15 % 1009 hPa 0,0 l/m 3,8 km/h (1 Bft) 0 min
01.05.2021 08:09 22,0 C 8,9 C 6,4 C 45 % 84 % 15 % 1009 hPa 0,0 l/m 4,2 km/h (1 Bft) 0 min
01.05.2021 08:12 22,1 C 9,0 C 6,4 C 45 % 84 % 15 % 1009 hPa 0,0 l/m 3,6 km/h (1 Bft) 0 min
01.05.2021 08:15 22,1 C 9,0 C 6,4 C 45 % 84 % 15 % 1009 hPa 0,0 l/m 3,6 km/h (1 Bft) 0 min
01.05.2021 08:18 22,1 C 9,0 C 6,3 C 45 % 83 % 15 % 1009 hPa 0,0 l/m 1,5 km/h (1 Bft) 0 min
01.05.2021 08:21 22,1 C 8,9 C 6,4 C 45 % 83 % 15 % 1009 hPa 0,0 l/m 6,1 km/h (2 Bft) 0 min
01.05.2021 08:24 22,1 C 9,0 C 6,5 C 45 % 83 % 15 % 1009 hPa 0,0 l/m 6,5 km/h (2 Bft) 0 min
01.05.2021 08:27 22,1 C 9,0 C 6,5 C 45 % 83 % 15 % 1009 hPa 0,0 l/m 4,0 km/h (1 Bft) 0 min
01.05.2021 08:30 22,0 C 8,9 C 6,2 C 45 % 83 % 15 % 1009 hPa 0,0 l/m 5,2 km/h (1 Bft) 0 min
01.05.2021 08:33 22,1 C 8,9 C 6,3 C 45 % 83 % 15 % 1009 hPa 0,0 l/m 3,3 km/h (1 Bft) 0 min
01.05.2021 08:36 22,1 C 8,9 C 6,5 C 45 % 83 % 15 % 1009 hPa 0,0 l/m 1,6 km/h (1 Bft) 0 min
01.05.2021 08:39 22,1 C 8,9 C 6,3 C 45 % 83 % 15 % 1008 hPa 0,0 l/m 3,3 km/h (1 Bft) 0 min
01.05.2021 08:42 22,1 C 9,0 C 6,5 C 45 % 83 % 15 % 1008 hPa 0,0 l/m 3,7 km/h (1 Bft) 0 min
01.05.2021 08:45 22,1 C 9,0 C 6,4 C 45 % 83 % 15 % 1008 hPa 0,0 l/m 0,6 km/h (0 Bft) 0 min
01.05.2021 08:48 22,1 C 9,0 C 6,3 C 45 % 83 % 15 % 1008 hPa 0,0 l/m 3,4 km/h (1 Bft) 0 min
01.05.2021 08:51 22,1 C 9,0 C 6,3 C 45 % 82 % 15 % 1008 hPa 0,0 l/m 4,1 km/h (1 Bft) 0 min
01.05.2021 08:54 22,1 C 9,0 C 6,3 C 45 % 82 % 15 % 1008 hPa 0,0 l/m 2,4 km/h (1 Bft) 0 min
01.05.2021 08:57 22,1 C 9,1 C 6,3 C 45 % 83 % 15 % 1008 hPa 0,0 l/m 0,3 km/h (0 Bft) 0 min
01.05.2021 09:00 22,1 C 9,2 C 6,6 C 45 % 83 % 15 % 1008 hPa 0,0 l/m 0,0 km/h (0 Bft) 0 min
01.05.2021 09:03 22,1 C 9,2 C 6,4 C 45 % 82 % 15 % 1008 hPa 0,0 l/m 0,2 km/h (0 Bft) 0 min
01.05.2021 09:06 22,1 C 9,2 C 6,7 C 45 % 82 % 15 % 1008 hPa 0,0 l/m 0,1 km/h (0 Bft) 0 min
01.05.2021 09:09 22,1 C 9,3 C 6,5 C 45 % 82 % 15 % 1008 hPa 0,0 l/m 0,0 km/h (0 Bft) 0 min
01.05.2021 09:12 22,1 C 9,3 C 6,5 C 45 % 81 % 15 % 1008 hPa 0,0 l/m 0,0 km/h (0 Bft) 0 min
01.05.2021 09:15 22,1 C 9,5 C 6,7 C 45 % 81 % 15 % 1008 hPa 0,0 l/m 1,0 km/h (0 Bft) 0 min
01.05.2021 09:18 22,1 C 9,7 C 6,6 C 45 % 81 % 15 % 1008 hPa 0,0 l/m 0,3 km/h (0 Bft) 0 min
01.05.2021 09:21 22,2 C 9,7 C 6,6 C 45 % 81 % 15 % 1008 hPa 0,0 l/m 0,7 km/h (0 Bft) 0 min
01.05.2021 09:24 22,1 C 9,7 C 6,7 C 45 % 81 % 15 % 1008 hPa 0,0 l/m 0,0 km/h (0 Bft) 0 min
01.05.2021 09:27 22,1 C 9,7 C 6,7 C 45 % 80 % 15 % 1008 hPa 0,0 l/m 0,0 km/h (0 Bft) 0 min
01.05.2021 09:30 22,2 C 9,8 C 6,9 C 45 % 81 % 15 % 1008 hPa 0,0 l/m 0,1 km/h (0 Bft) 0 min
01.05.2021 09:33 22,2 C 10,0 C 6,9 C 45 % 81 % 15 % 1008 hPa 0,0 l/m 0,1 km/h (0 Bft) 0 min
01.05.2021 09:36 22,2 C 10,1 C 6,9 C 45 % 80 % 15 % 1008 hPa 0,0 l/m 0,2 km/h (0 Bft) 0 min
01.05.2021 09:39 22,2 C 10,1 C 6,8 C 45 % 80 % 15 % 1008 hPa 0,0 l/m 7,3 km/h (2 Bft) 0 min
01.05.2021 09:42 22,2 C 10,2 C 6,9 C 45 % 80 % 15 % 1008 hPa 0,0 l/m 3,7 km/h (1 Bft) 0 min
01.05.2021 09:45 22,2 C 10,4 C 6,9 C 45 % 79 % 15 % 1008 hPa 0,0 l/m 3,3 km/h (1 Bft) 0 min
01.05.2021 09:48 22,2 C 10,5 C 7,1 C 45 % 79 % 15 % 1008 hPa 0,0 l/m 5,0 km/h (1 Bft) 0 min
01.05.2021 09:51 22,2 C 10,5 C 7,0 C 45 % 78 % 15 % 1008 hPa 0,0 l/m 4,1 km/h (1 Bft) 0 min
01.05.2021 09:54 22,2 C 10,5 C 7,1 C 45 % 78 % 15 % 1008 hPa 0,0 l/m 5,4 km/h (1 Bft) 0 min
01.05.2021 09:57 22,2 C 10,5 C 7,1 C 45 % 78 % 15 % 1008 hPa 0,0 l/m 5,4 km/h (1 Bft) 0 min
01.05.2021 10:00 22,2 C 10,6 C 7,1 C 45 % 78 % 15 % 1008 hPa 0,0 l/m 2,2 km/h (1 Bft) 0 min
01.05.2021 10:03 22,2 C 10,6 C 7,1 C 45 % 78 % 15 % 1008 hPa 0,0 l/m 1,8 km/h (1 Bft) 0 min
01.05.2021 10:06 22,2 C 10,6 C 7,2 C 46 % 77 % 15 % 1008 hPa 0,0 l/m 0,9 km/h (0 Bft) 0 min
01.05.2021 10:09 22,2 C 10,6 C 7,3 C 46 % 78 % 15 % 1008 hPa 0,0 l/m 3,9 km/h (1 Bft) 0 min
01.05.2021 10:12 22,2 C 10,8 C 7,3 C 46 % 78 % 15 % 1008 hPa 0,0 l/m 3,9 km/h (1 Bft) 0 min
01.05.2021 10:15 22,2 C 10,8 C 7,3 C 46 % 78 % 15 % 1008 hPa 0,0 l/m 0,1 km/h (0 Bft) 0 min
01.05.2021 10:18 22,2 C 10,8 C 7,3 C 46 % 78 % 15 % 1008 hPa 0,0 l/m 0,0 km/h (0 Bft) 0 min
01.05.2021 10:21 22,2 C 10,9 C 7,4 C 46 % 78 % 15 % 1008 hPa 0,0 l/m 4,8 km/h (1 Bft) 0 min
01.05.2021 10:24 22,2 C 10,8 C 7,4 C 46 % 78 % 15 % 1008 hPa 0,0 l/m 0,1 km/h (0 Bft) 0 min
01.05.2021 10:27 22,2 C 10,8 C 7,3 C 46 % 78 % 15 % 1008 hPa 0,0 l/m 0,0 km/h (0 Bft) 0 min
01.05.2021 10:30 22,2 C 10,8 C 7,5 C 46 % 78 % 15 % 1008 hPa 0,0 l/m 5,9 km/h (2 Bft) 0 min
01.05.2021 10:33 22,2 C 11,0 C 7,5 C 46 % 77 % 15 % 1008 hPa 0,0 l/m 4,2 km/h (1 Bft) 0 min
01.05.2021 10:36 22,2 C 11,2 C 7,6 C 46 % 77 % 15 % 1008 hPa 0,0 l/m 0,4 km/h (0 Bft) 0 min
01.05.2021 10:39 22,2 C 11,3 C 7,7 C 46 % 77 % 15 % 1008 hPa 0,0 l/m 0,1 km/h (0 Bft) 0 min
01.05.2021 10:42 22,2 C 11,3 C 7,6 C 46 % 76 % 15 % 1008 hPa 0,0 l/m 0,1 km/h (0 Bft) 0 min
01.05.2021 10:45 22,2 C 11,3 C 7,7 C 46 % 76 % 15 % 1008 hPa 0,0 l/m 5,2 km/h (1 Bft) 0 min
01.05.2021 10:48 22,2 C 11,3 C 7,6 C 46 % 76 % 15 % 1007 hPa 0,0 l/m 3,9 km/h (1 Bft) 0 min
01.05.2021 10:51 22,2 C 11,4 C 7,8 C 46 % 77 % 15 % 1007 hPa 0,0 l/m 0,5 km/h (0 Bft) 0 min
01.05.2021 10:54 22,2 C 11,5 C 7,8 C 46 % 77 % 15 % 1007 hPa 0,0 l/m 8,3 km/h (2 Bft) 0 min
01.05.2021 10:57 22,2 C 11,5 C 7,8 C 46 % 75 % 15 % 1007 hPa 0,0 l/m 3,8 km/h (1 Bft) 0 min
01.05.2021 11:00 22,2 C 11,5 C 7,9 C 46 % 76 % 15 % 1007 hPa 0,0 l/m 5,5 km/h (1 Bft) 0 min
01.05.2021 11:03 22,2 C 11,6 C 7,9 C 46 % 76 % 15 % 1007 hPa 0,0 l/m 7,9 km/h (2 Bft) 0 min
01.05.2021 11:06 22,2 C 11,5 C 7,8 C 46 % 75 % 15 % 1007 hPa 0,0 l/m 7,9 km/h (2 Bft) 0 min
01.05.2021 11:09 22,2 C 11,4 C 7,7 C 46 % 76 % 15 % 1007 hPa 0,0 l/m 0,7 km/h (0 Bft) 0 min
01.05.2021 11:12 22,2 C 11,4 C 7,8 C 46 % 76 % 15 % 1007 hPa 0,0 l/m 5,9 km/h (2 Bft) 0 min
01.05.2021 11:15 22,2 C 11,3 C 7,8 C 46 % 75 % 15 % 1007 hPa 0,0 l/m 6,0 km/h (2 Bft) 0 min
01.05.2021 11:18 22,2 C 11,4 C 7,8 C 46 % 75 % 15 % 1007 hPa 0,0 l/m 0,3 km/h (0 Bft) 0 min
01.05.2021 11:21 22,2 C 11,4 C 7,8 C 46 % 75 % 15 % 1007 hPa 0,0 l/m 2,2 km/h (1 Bft) 0 min
01.05.2021 11:24 22,2 C 11,4 C 7,9 C 46 % 76 % 15 % 1007 hPa 0,0 l/m 0,5 km/h (0 Bft) 0 min
01.05.2021 11:27 22,2 C 11,3 C 8,0 C 46 % 75 % 15 % 1007 hPa 0,0 l/m 0,2 km/h (0 Bft) 0 min
01.05.2021 11:30 22,2 C 11,2 C 7,7 C 46 % 76 % 15 % 1007 hPa 0,0 l/m 4,8 km/h (1 Bft) 0 min
01.05.2021 11:33 22,2 C 11,3 C 7,8 C 46 % 75 % 15 % 1007 hPa 0,0 l/m 7,8 km/h (2 Bft) 0 min
01.05.2021 11:36 22,2 C 11,4 C 7,9 C 46 % 76 % 15 % 1007 hPa 0,0 l/m 8,4 km/h (2 Bft) 0 min
01.05.2021 11:39 22,3 C 11,6 C 7,9 C 46 % 76 % 15 % 1007 hPa 0,0 l/m 5,9 km/h (2 Bft) 0 min
01.05.2021 11:42 22,2 C 11,7 C 8,1 C 46 % 75 % 15 % 1007 hPa 0,0 l/m 4,5 km/h (1 Bft) 0 min
01.05.2021 11:45 22,2 C 11,7 C 8,1 C 46 % 75 % 15 % 1007 hPa 0,0 l/m 2,3 km/h (1 Bft) 0 min
01.05.2021 11:48 22,2 C 11,7 C 8,3 C 46 % 75 % 15 % 1007 hPa 0,0 l/m 2,3 km/h (1 Bft) 0 min
01.05.2021 11:51 22,2 C 12,1 C 8,2 C 46 % 75 % 15 % 1007 hPa 0,0 l/m 7,5 km/h (2 Bft) 0 min
01.05.2021 11:54 22,2 C 12,3 C 8,5 C 46 % 74 % 15 % 1007 hPa 0,0 l/m 10,8 km/h (2 Bft) 0 min
01.05.2021 11:57 22,2 C 12,4 C 8,4 C 46 % 74 % 15 % 1007 hPa 0,0 l/m 5,7 km/h (1 Bft) 0 min
01.05.2021 12:00 22,2 C 12,4 C 8,4 C 46 % 74 % 15 % 1007 hPa 0,0 l/m 8,9 km/h (2 Bft) 0 min
01.05.2021 12:03 22,2 C 12,4 C 8,3 C 46 % 72 % 15 % 1007 hPa 0,0 l/m 6,2 km/h (2 Bft) 0 min
01.05.2021 12:06 22,2 C 12,3 C 8,5 C 46 % 74 % 15 % 1007 hPa 0,0 l/m 10,7 km/h (2 Bft) 0 min
01.05.2021 12:09 22,2 C 12,3 C 8,3 C 46 % 74 % 15 % 1007 hPa 0,0 l/m 10,7 km/h (2 Bft) 0 min
01.05.2021 12:12 22,2 C 12,3 C 8,4 C 46 % 74 % 15 % 1006 hPa 0,0 l/m 10,2 km/h (2 Bft) 0 min
01.05.2021 12:15 22,2 C 12,4 C 8,5 C 46 % 74 % 15 % 1006 hPa 0,0 l/m 9,7 km/h (2 Bft) 0 min
01.05.2021 12:18 22,3 C 12,7 C 8,5 C 46 % 74 % 15 % 1007 hPa 0,0 l/m 7,8 km/h (2 Bft) 0 min
01.05.2021 12:21 22,3 C 12,9 C 8,6 C 47 % 73 % 15 % 1006 hPa 0,0 l/m 6,2 km/h (2 Bft) 0 min
01.05.2021 12:24 22,3 C 13,0 C 8,5 C 47 % 73 % 15 % 1006 hPa 0,0 l/m 4,6 km/h (1 Bft) 0 min
01.05.2021 12:27 22,4 C 13,0 C 8,6 C 47 % 73 % 15 % 1006 hPa 0,0 l/m 8,9 km/h (2 Bft) 0 min
01.05.2021 12:30 22,3 C 13,1 C 8,5 C 47 % 73 % 15 % 1006 hPa 0,0 l/m 8,9 km/h (2 Bft) 0 min
01.05.2021 12:33 22,2 C 13,2 C 8,7 C 46 % 73 % 15 % 1006 hPa 0,0 l/m 8,9 km/h (2 Bft) 0 min
01.05.2021 12:36 22,0 C 13,4 C 8,9 C 46 % 72 % 15 % 1006 hPa 0,0 l/m 8,9 km/h (2 Bft) 0 min
01.05.2021 12:39 21,8 C 13,4 C 8,8 C 46 % 71 % 15 % 1006 hPa 0,0 l/m 8,9 km/h (2 Bft) 0 min
01.05.2021 12:42 21,7 C 13,6 C 8,8 C 46 % 71 % 15 % 1006 hPa 0,0 l/m 4,6 km/h (1 Bft) 0 min
01.05.2021 12:45 21,6 C 13,9 C 8,8 C 46 % 71 % 15 % 1006 hPa 0,0 l/m 1,3 km/h (1 Bft) 0 min
01.05.2021 12:48 21,6 C 14,0 C 8,7 C 46 % 70 % 15 % 1006 hPa 0,0 l/m 7,9 km/h (2 Bft) 0 min
01.05.2021 12:51 21,7 C 14,0 C 8,7 C 46 % 70 % 15 % 1006 hPa 0,0 l/m 7,6 km/h (2 Bft) 0 min
01.05.2021 12:54 21,8 C 14,0 C 8,9 C 46 % 70 % 15 % 1006 hPa 0,0 l/m 4,5 km/h (1 Bft) 0 min
01.05.2021 12:57 21,9 C 13,9 C 8,9 C 46 % 70 % 15 % 1006 hPa 0,0 l/m 8,8 km/h (2 Bft) 0 min
01.05.2021 13:00 21,9 C 13,9 C 9,1 C 45 % 70 % 15 % 1006 hPa 0,0 l/m 9,4 km/h (2 Bft) 0 min
01.05.2021 13:03 22,0 C 13,8 C 9,3 C 45 % 71 % 15 % 1006 hPa 0,0 l/m 7,4 km/h (2 Bft) 0 min
01.05.2021 13:06 22,0 C 13,8 C 9,3 C 45 % 71 % 15 % 1006 hPa 0,0 l/m 6,8 km/h (2 Bft) 0 min
01.05.2021 13:09 22,0 C 14,0 C 9,1 C 45 % 71 % 15 % 1006 hPa 0,0 l/m 6,4 km/h (2 Bft) 0 min
01.05.2021 13:12 22,0 C 14,1 C 8,8 C 45 % 71 % 15 % 1006 hPa 0,0 l/m 2,3 km/h (1 Bft) 0 min
01.05.2021 13:15 22,0 C 14,0 C 8,9 C 45 % 70 % 15 % 1006 hPa 0,0 l/m 4,0 km/h (1 Bft) 0 min
01.05.2021 13:18 22,0 C 13,9 C 9,0 C 45 % 71 % 15 % 1006 hPa 0,0 l/m 0,1 km/h (0 Bft) 0 min
01.05.2021 13:21 22,1 C 14,1 C 9,2 C 45 % 70 % 15 % 1006 hPa 0,0 l/m 6,7 km/h (2 Bft) 0 min
01.05.2021 13:24 22,1 C 14,3 C 9,1 C 45 % 70 % 15 % 1006 hPa 0,0 l/m 4,2 km/h (1 Bft) 0 min
01.05.2021 13:27 22,1 C 14,4 C 9,2 C 45 % 70 % 15 % 1006 hPa 0,0 l/m 4,3 km/h (1 Bft) 0 min
01.05.2021 13:30 22,1 C 14,4 C 9,3 C 45 % 70 % 15 % 1006 hPa 0,0 l/m 3,1 km/h (1 Bft) 0 min
01.05.2021 13:33 22,1 C 14,7 C 9,5 C 45 % 70 % 15 % 1006 hPa 0,0 l/m 4,0 km/h (1 Bft) 0 min
01.05.2021 13:36 22,2 C 15,0 C 9,4 C 45 % 70 % 15 % 1006 hPa 0,0 l/m 1,9 km/h (1 Bft) 0 min
01.05.2021 13:39 22,1 C 15,4 C 9,7 C 45 % 69 % 15 % 1006 hPa 0,0 l/m 4,5 km/h (1 Bft) 0 min
01.05.2021 13:42 22,1 C 15,8 C 9,7 C 45 % 68 % 15 % 1006 hPa 0,0 l/m 3,9 km/h (1 Bft) 0 min
01.05.2021 13:45 22,1 C 15,8 C 10,0 C 45 % 68 % 15 % 1006 hPa 0,0 l/m 5,7 km/h (1 Bft) 0 min
01.05.2021 13:48 22,1 C 15,8 C 9,9 C 45 % 68 % 15 % 1006 hPa 0,0 l/m 7,9 km/h (2 Bft) 0 min
01.05.2021 13:51 22,2 C 15,6 C 9,9 C 45 % 67 % 15 % 1006 hPa 0,0 l/m 4,8 km/h (1 Bft) 0 min
01.05.2021 13:54 22,2 C 15,7 C 9,8 C 45 % 67 % 15 % 1006 hPa 0,0 l/m 7,6 km/h (2 Bft) 0 min
01.05.2021 13:57 22,2 C 15,8 C 10,0 C 45 % 68 % 15 % 1005 hPa 0,0 l/m 6,8 km/h (2 Bft) 0 min
01.05.2021 14:00 22,2 C 15,6 C 10,0 C 45 % 67 % 15 % 1006 hPa 0,0 l/m 7,8 km/h (2 Bft) 0 min
01.05.2021 14:03 22,2 C 15,4 C 9,9 C 45 % 68 % 15 % 1005 hPa 0,0 l/m 4,8 km/h (1 Bft) 0 min
01.05.2021 14:06 22,2 C 15,4 C 9,9 C 45 % 69 % 15 % 1005 hPa 0,0 l/m 4,8 km/h (1 Bft) 0 min
01.05.2021 14:09 22,2 C 15,4 C 9,9 C 45 % 68 % 15 % 1006 hPa 0,0 l/m 3,5 km/h (1 Bft) 0 min
01.05.2021 14:12 22,2 C 15,3 C 9,9 C 45 % 69 % 15 % 1005 hPa 0,0 l/m 0,1 km/h (0 Bft) 0 min
01.05.2021 14:15 22,2 C 15,4 C 9,7 C 45 % 69 % 15 % 1005 hPa 0,0 l/m 4,5 km/h (1 Bft) 0 min
01.05.2021 14:18 22,2 C 15,3 C 9,7 C 45 % 69 % 15 % 1005 hPa 0,0 l/m 3,3 km/h (1 Bft) 0 min
01.05.2021 14:21 22,2 C 15,5 C 9,8 C 46 % 69 % 15 % 1005 hPa 0,0 l/m 5,5 km/h (1 Bft) 0 min
01.05.2021 14:24 22,2 C 15,5 C 9,9 C 45 % 69 % 15 % 1005 hPa 0,0 l/m 5,5 km/h (1 Bft) 0 min
01.05.2021 14:27 22,2 C 15,5 C 10,0 C 46 % 69 % 15 % 1005 hPa 0,0 l/m 2,5 km/h (1 Bft) 0 min
01.05.2021 14:30 22,3 C 15,6 C 10,1 C 46 % 69 % 15 % 1005 hPa 0,0 l/m 2,8 km/h (1 Bft) 0 min
01.05.2021 14:33 22,2 C 15,8 C 10,2 C 46 % 68 % 15 % 1005 hPa 0,0 l/m 3,0 km/h (1 Bft) 0 min
01.05.2021 14:36 22,3 C 16,0 C 10,1 C 46 % 69 % 15 % 1005 hPa 0,0 l/m 3,8 km/h (1 Bft) 0 min
01.05.2021 14:39 22,3 C 16,0 C 10,2 C 46 % 69 % 15 % 1005 hPa 0,0 l/m 1,2 km/h (1 Bft) 0 min
01.05.2021 14:42 22,3 C 16,1 C 10,1 C 46 % 66 % 15 % 1005 hPa 0,0 l/m 4,3 km/h (1 Bft) 0 min
01.05.2021 14:45 22,4 C 16,1 C 10,2 C 46 % 67 % 15 % 1005 hPa 0,0 l/m 4,2 km/h (1 Bft) 0 min
01.05.2021 14:48 22,3 C 16,2 C 10,4 C 46 % 66 % 15 % 1005 hPa 0,0 l/m 3,2 km/h (1 Bft) 0 min
01.05.2021 14:51 22,3 C 16,5 C 10,2 C 46 % 66 % 15 % 1005 hPa 0,0 l/m 0,4 km/h (0 Bft) 0 min
01.05.2021 14:54 22,3 C 16,6 C 10,5 C 46 % 66 % 15 % 1005 hPa 0,0 l/m 3,3 km/h (1 Bft) 0 min
01.05.2021 14:57 22,3 C 16,8 C 10,3 C 46 % 65 % 15 % 1005 hPa 0,0 l/m 4,5 km/h (1 Bft) 0 min
01.05.2021 15:00 22,3 C 16,7 C 10,3 C 46 % 65 % 15 % 1005 hPa 0,0 l/m 4,5 km/h (1 Bft) 0 min
01.05.2021 15:03 22,4 C 16,7 C 10,3 C 46 % 65 % 15 % 1005 hPa 0,0 l/m 2,6 km/h (1 Bft) 0 min
01.05.2021 15:06 22,4 C 16,9 C 10,5 C 46 % 64 % 15 % 1005 hPa 0,0 l/m 1,4 km/h (1 Bft) 0 min
01.05.2021 15:09 22,4 C 17,0 C 10,7 C 46 % 64 % 15 % 1005 hPa 0,0 l/m 0,9 km/h (0 Bft) 0 min
01.05.2021 15:12 22,3 C 17,0 C 10,6 C 46 % 65 % 15 % 1005 hPa 0,0 l/m 2,0 km/h (1 Bft) 0 min
01.05.2021 15:15 22,3 C 17,1 C 10,4 C 46 % 65 % 15 % 1004 hPa 0,0 l/m 5,4 km/h (1 Bft) 0 min
01.05.2021 15:18 22,4 C 17,0 C 10,4 C 46 % 65 % 15 % 1004 hPa 0,0 l/m 1,6 km/h (1 Bft) 0 min
01.05.2021 15:21 22,3 C 17,0 C 10,6 C 46 % 65 % 15 % 1004 hPa 0,0 l/m 1,6 km/h (1 Bft) 0 min
01.05.2021 15:24 22,3 C 16,9 C 10,6 C 46 % 64 % 15 % 1004 hPa 0,0 l/m 1,6 km/h (1 Bft) 0 min
01.05.2021 15:27 22,3 C 16,6 C 10,5 C 46 % 64 % 15 % 1004 hPa 0,0 l/m 1,6 km/h (1 Bft) 0 min
01.05.2021 15:30 22,2 C 16,4 C 10,5 C 46 % 65 % 15 % 1004 hPa 0,0 l/m 1,6 km/h (1 Bft) 0 min
01.05.2021 15:33 22,2 C 16,3 C 10,5 C 47 % 65 % 15 % 1004 hPa 0,0 l/m 1,6 km/h (1 Bft) 0 min
01.05.2021 15:36 22,1 C 16,3 C 10,7 C 47 % 65 % 15 % 1004 hPa 0,0 l/m 1,0 km/h (0 Bft) 0 min
01.05.2021 15:39 22,1 C 16,3 C 10,5 C 47 % 65 % 15 % 1004 hPa 0,0 l/m 0,6 km/h (0 Bft) 0 min
01.05.2021 15:42 22,1 C 16,4 C 10,6 C 47 % 64 % 15 % 1004 hPa 0,0 l/m 0,7 km/h (0 Bft) 0 min
01.05.2021 15:45 22,2 C 16,5 C 10,8 C 47 % 64 % 15 % 1004 hPa 0,0 l/m 0,1 km/h (0 Bft) 0 min
01.05.2021 15:48 22,2 C 16,5 C 10,5 C 47 % 65 % 15 % 1004 hPa 0,0 l/m 4,2 km/h (1 Bft) 0 min
01.05.2021 15:51 22,2 C 16,8 C 10,7 C 47 % 66 % 15 % 1004 hPa 0,0 l/m 1,8 km/h (1 Bft) 0 min
01.05.2021 15:54 22,2 C 17,2 C 10,5 C 47 % 66 % 15 % 1004 hPa 0,0 l/m 5,4 km/h (1 Bft) 0 min
01.05.2021 15:57 22,3 C 17,4 C 10,8 C 47 % 65 % 15 % 1004 hPa 0,0 l/m 5,1 km/h (1 Bft) 0 min
01.05.2021 16:00 22,4 C 17,3 C 10,7 C 47 % 64 % 15 % 1004 hPa 0,0 l/m 6,4 km/h (2 Bft) 0 min
01.05.2021 16:03 22,4 C 17,4 C 10,8 C 47 % 64 % 15 % 1004 hPa 0,0 l/m 6,4 km/h (2 Bft) 0 min
01.05.2021 16:06 22,4 C 17,4 C 10,7 C 47 % 64 % 15 % 1004 hPa 0,0 l/m 4,5 km/h (1 Bft) 0 min
01.05.2021 16:09 22,4 C 17,4 C 10,7 C 47 % 62 % 15 % 1004 hPa 0,0 l/m 0,4 km/h (0 Bft) 0 min
01.05.2021 16:12 22,4 C 17,3 C 10,7 C 47 % 63 % 15 % 1003 hPa 0,0 l/m 0,0 km/h (0 Bft) 0 min
01.05.2021 16:15 22,4 C 16,9 C 10,7 C 47 % 65 % 15 % 1003 hPa 0,0 l/m 0,0 km/h (0 Bft) 0 min
01.05.2021 16:18 22,3 C 16,8 C 10,6 C 47 % 65 % 15 % 1003 hPa 0,0 l/m 0,4 km/h (0 Bft) 0 min
01.05.2021 16:21 22,4 C 17,1 C 10,6 C 47 % 65 % 15 % 1003 hPa 0,0 l/m 3,7 km/h (1 Bft) 0 min
01.05.2021 16:24 22,4 C 17,4 C 10,8 C 47 % 63 % 15 % 1003 hPa 0,0 l/m 0,0 km/h (0 Bft) 0 min
01.05.2021 16:27 22,3 C 17,5 C 10,8 C 47 % 65 % 15 % 1003 hPa 0,0 l/m 0,6 km/h (0 Bft) 0 min
01.05.2021 16:30 22,4 C 17,5 C 11,0 C 47 % 64 % 15 % 1003 hPa 0,0 l/m 1,0 km/h (0 Bft) 0 min
01.05.2021 16:33 22,4 C 17,6 C 10,9 C 47 % 64 % 15 % 1003 hPa 0,0 l/m 0,4 km/h (0 Bft) 0 min
01.05.2021 16:36 22,3 C 17,8 C 11,0 C 47 % 64 % 15 % 1003 hPa 0,0 l/m 0,3 km/h (0 Bft) 0 min
01.05.2021 16:39 22,4 C 18,2 C 10,8 C 47 % 64 % 15 % 1003 hPa 0,0 l/m 2,2 km/h (1 Bft) 0 min
01.05.2021 16:42 22,4 C 18,2 C 10,9 C 47 % 63 % 15 % 1003 hPa 0,0 l/m 0,3 km/h (0 Bft) 0 min
01.05.2021 16:45 22,4 C 18,1 C 10,9 C 47 % 63 % 15 % 1003 hPa 0,0 l/m 0,3 km/h (0 Bft) 0 min
01.05.2021 16:48 22,4 C 18,1 C 10,9 C 47 % 64 % 15 % 1003 hPa 0,0 l/m 5,1 km/h (1 Bft) 0 min
01.05.2021 16:51 22,4 C 18,0 C 10,9 C 47 % 64 % 15 % 1003 hPa 0,0 l/m 4,6 km/h (1 Bft) 0 min
01.05.2021 16:54 22,4 C 17,9 C 10,8 C 47 % 64 % 15 % 1003 hPa 0,0 l/m 0,4 km/h (0 Bft) 0 min
01.05.2021 16:57 22,4 C 17,5 C 10,9 C 47 % 63 % 15 % 1003 hPa 0,0 l/m 3,4 km/h (1 Bft) 0 min
01.05.2021 17:00 22,4 C 17,2 C 10,8 C 47 % 65 % 15 % 1003 hPa 0,0 l/m 2,0 km/h (1 Bft) 0 min
01.05.2021 17:03 22,3 C 17,1 C 10,8 C 47 % 65 % 15 % 1003 hPa 0,0 l/m 5,6 km/h (1 Bft) 0 min
01.05.2021 17:06 22,3 C 17,0 C 10,7 C 47 % 65 % 15 % 1003 hPa 0,0 l/m 0,4 km/h (0 Bft) 0 min
01.05.2021 17:09 22,3 C 17,0 C 10,7 C 47 % 66 % 15 % 1003 hPa 0,0 l/m 0,4 km/h (0 Bft) 0 min
01.05.2021 17:12 22,3 C 16,8 C 10,8 C 47 % 65 % 15 % 1003 hPa 0,0 l/m 5,4 km/h (1 Bft) 0 min
01.05.2021 17:15 22,3 C 16,8 C 10,7 C 47 % 66 % 15 % 1003 hPa 0,0 l/m 5,1 km/h (1 Bft) 0 min
01.05.2021 17:18 22,3 C 16,8 C 10,6 C 47 % 66 % 15 % 1003 hPa 0,0 l/m 0,4 km/h (0 Bft) 0 min
01.05.2021 17:21 22,3 C 16,8 C 11,0 C 47 % 66 % 15 % 1003 hPa 0,0 l/m 0,1 km/h (0 Bft) 0 min
01.05.2021 17:24 22,3 C 16,8 C 11,1 C 47 % 67 % 15 % 1003 hPa 0,0 l/m 5,1 km/h (1 Bft) 0 min
01.05.2021 17:27 22,3 C 16,8 C 11,1 C 47 % 67 % 15 % 1003 hPa 0,0 l/m 5,1 km/h (1 Bft) 0 min
01.05.2021 17:30 22,3 C 16,7 C 11,1 C 47 % 67 % 15 % 1003 hPa 0,0 l/m 4,0 km/h (1 Bft) 0 min
01.05.2021 17:33 22,3 C 16,7 C 10,8 C 47 % 68 % 15 % 1003 hPa 0,0 l/m 4,0 km/h (1 Bft) 0 min
01.05.2021 17:36 22,3 C 16,7 C 10,7 C 47 % 68 % 15 % 1003 hPa 0,0 l/m 5,7 km/h (1 Bft) 0 min
01.05.2021 17:39 22,3 C 16,7 C 10,9 C 47 % 68 % 15 % 1003 hPa 0,0 l/m 5,4 km/h (1 Bft) 0 min
01.05.2021 17:42 22,3 C 16,7 C 10,9 C 47 % 68 % 15 % 1003 hPa 0,0 l/m 5,9 km/h (2 Bft) 0 min
01.05.2021 17:45 22,3 C 16,7 C 11,0 C 47 % 68 % 15 % 1003 hPa 0,0 l/m 3,9 km/h (1 Bft) 0 min
01.05.2021 17:48 22,3 C 16,7 C 11,2 C 47 % 68 % 15 % 1003 hPa 0,0 l/m 4,7 km/h (1 Bft) 0 min
01.05.2021 17:51 22,3 C 16,6 C 11,3 C 47 % 68 % 15 % 1003 hPa 0,0 l/m 7,0 km/h (2 Bft) 0 min
01.05.2021 17:54 22,3 C 16,6 C 11,3 C 47 % 68 % 15 % 1003 hPa 0,0 l/m 4,9 km/h (1 Bft) 0 min
01.05.2021 17:57 22,3 C 16,6 C 11,0 C 47 % 68 % 15 % 1003 hPa 0,0 l/m 7,3 km/h (2 Bft) 0 min
01.05.2021 18:00 22,3 C 16,5 C 11,1 C 47 % 69 % 15 % 1003 hPa 0,0 l/m 7,3 km/h (2 Bft) 0 min
01.05.2021 18:03 22,2 C 16,4 C 10,9 C 47 % 69 % 15 % 1003 hPa 0,0 l/m 5,7 km/h (1 Bft) 0 min
01.05.2021 18:06 22,2 C 16,4 C 11,2 C 47 % 69 % 15 % 1003 hPa 0,0 l/m 5,0 km/h (1 Bft) 0 min
01.05.2021 18:09 22,3 C 16,2 C 11,1 C 47 % 69 % 15 % 1003 hPa 0,0 l/m 6,9 km/h (2 Bft) 0 min
01.05.2021 18:12 22,3 C 16,2 C 11,0 C 47 % 69 % 15 % 1002 hPa 0,0 l/m 7,4 km/h (2 Bft) 0 min
01.05.2021 18:15 22,3 C 16,1 C 10,8 C 47 % 69 % 15 % 1002 hPa 0,0 l/m 5,1 km/h (1 Bft) 0 min
01.05.2021 18:18 22,3 C 16,1 C 10,9 C 47 % 70 % 15 % 1002 hPa 0,0 l/m 6,5 km/h (2 Bft) 0 min
01.05.2021 18:21 22,2 C 16,0 C 11,0 C 47 % 70 % 15 % 1002 hPa 0,0 l/m 0,5 km/h (0 Bft) 0 min
01.05.2021 18:24 22,2 C 16,0 C 11,1 C 47 % 70 % 15 % 1002 hPa 0,0 l/m 4,2 km/h (1 Bft) 0 min
01.05.2021 18:27 22,2 C 15,9 C 10,9 C 47 % 70 % 15 % 1002 hPa 0,0 l/m 5,6 km/h (1 Bft) 0 min
01.05.2021 18:30 22,3 C 15,8 C 11,0 C 47 % 70 % 15 % 1002 hPa 0,0 l/m 1,0 km/h (0 Bft) 0 min
01.05.2021 18:33 22,2 C 15,8 C 11,0 C 47 % 71 % 15 % 1002 hPa 0,0 l/m 4,4 km/h (1 Bft) 0 min
01.05.2021 18:36 22,2 C 15,8 C 10,8 C 47 % 71 % 15 % 1002 hPa 0,0 l/m 0,1 km/h (0 Bft) 0 min
01.05.2021 18:39 22,2 C 15,8 C 10,9 C 47 % 71 % 15 % 1002 hPa 0,0 l/m 0,1 km/h (0 Bft) 0 min
01.05.2021 18:42 22,2 C 15,8 C 10,9 C 47 % 72 % 15 % 1002 hPa 0,0 l/m 0,0 km/h (0 Bft) 0 min
01.05.2021 18:45 22,2 C 15,7 C 10,9 C 47 % 71 % 15 % 1002 hPa 0,0 l/m 0,3 km/h (0 Bft) 0 min
01.05.2021 18:48 22,2 C 15,7 C 10,8 C 47 % 71 % 15 % 1002 hPa 0,0 l/m 5,6 km/h (1 Bft) 0 min
01.05.2021 18:51 22,2 C 15,6 C 10,8 C 47 % 72 % 15 % 1002 hPa 0,0 l/m 0,9 km/h (0 Bft) 0 min
01.05.2021 18:54 22,2 C 15,6 C 10,7 C 47 % 72 % 15 % 1002 hPa 0,0 l/m 2,5 km/h (1 Bft) 0 min
01.05.2021 18:57 22,2 C 15,6 C 10,7 C 47 % 73 % 15 % 1002 hPa 0,0 l/m 0,0 km/h (0 Bft) 0 min
01.05.2021 19:00 22,2 C 15,6 C 10,8 C 47 % 73 % 15 % 1002 hPa 0,0 l/m 0,0 km/h (0 Bft) 0 min
01.05.2021 19:03 22,2 C 15,6 C 10,7 C 47 % 73 % 15 % 1002 hPa 0,0 l/m 0,0 km/h (0 Bft) 0 min
01.05.2021 19:06 22,2 C 15,6 C 10,7 C 47 % 72 % 15 % 1002 hPa 0,0 l/m 0,0 km/h (0 Bft) 0 min
01.05.2021 19:09 22,2 C 15,6 C 10,9 C 47 % 71 % 15 % 1001 hPa 0,0 l/m 9,3 km/h (2 Bft) 0 min
01.05.2021 19:12 22,2 C 15,7 C 11,0 C 47 % 69 % 15 % 1001 hPa 0,0 l/m 7,9 km/h (2 Bft) 0 min
01.05.2021 19:15 22,2 C 15,7 C 10,9 C 47 % 68 % 15 % 1001 hPa 0,0 l/m 15,4 km/h (3 Bft) 0 min
01.05.2021 19:18 22,2 C 15,7 C 11,0 C 47 % 67 % 15 % 1001 hPa 0,0 l/m 9,3 km/h (2 Bft) 0 min
01.05.2021 19:21 22,2 C 15,7 C 11,0 C 47 % 66 % 15 % 1001 hPa 0,0 l/m 10,0 km/h (2 Bft) 0 min
01.05.2021 19:24 22,2 C 15,7 C 11,1 C 47 % 66 % 15 % 1001 hPa 0,0 l/m 10,1 km/h (2 Bft) 0 min
01.05.2021 19:27 22,2 C 15,6 C 11,1 C 47 % 66 % 15 % 1001 hPa 0,0 l/m 13,2 km/h (3 Bft) 0 min
01.05.2021 19:30 22,2 C 15,6 C 10,9 C 47 % 66 % 15 % 1001 hPa 0,0 l/m 16,0 km/h (3 Bft) 0 min
01.05.2021 19:33 22,2 C 15,5 C 10,9 C 47 % 66 % 15 % 1001 hPa 0,0 l/m 12,1 km/h (2 Bft) 0 min
01.05.2021 19:36 22,2 C 15,5 C 10,8 C 47 % 66 % 15 % 1001 hPa 0,0 l/m 10,3 km/h (2 Bft) 0 min
01.05.2021 19:39 22,2 C 15,4 C 10,9 C 47 % 66 % 15 % 1001 hPa 0,0 l/m 12,1 km/h (2 Bft) 0 min
01.05.2021 19:42 22,2 C 15,4 C 10,8 C 47 % 66 % 15 % 1001 hPa 0,0 l/m 8,1 km/h (2 Bft) 0 min
01.05.2021 19:45 22,2 C 15,4 C 10,8 C 47 % 66 % 15 % 1001 hPa 0,0 l/m 10,1 km/h (2 Bft) 0 min
01.05.2021 19:48 22,2 C 15,3 C 10,8 C 47 % 66 % 15 % 1001 hPa 0,0 l/m 12,3 km/h (3 Bft) 0 min
01.05.2021 19:51 22,2 C 15,3 C 10,7 C 47 % 67 % 15 % 1001 hPa 0,0 l/m 5,7 km/h (1 Bft) 0 min
01.05.2021 19:54 22,2 C 15,2 C 10,8 C 47 % 67 % 15 % 1001 hPa 0,0 l/m 4,7 km/h (1 Bft) 0 min
01.05.2021 19:57 22,2 C 15,2 C 10,7 C 47 % 67 % 15 % 1001 hPa 0,0 l/m 5,6 km/h (1 Bft) 0 min
01.05.2021 20:00 22,2 C 15,2 C 10,8 C 47 % 67 % 15 % 1001 hPa 0,0 l/m 3,5 km/h (1 Bft) 0 min
01.05.2021 20:03 22,2 C 15,1 C 10,7 C 47 % 67 % 15 % 1001 hPa 0,0 l/m 12,6 km/h (3 Bft) 0 min
01.05.2021 20:06 22,2 C 15,0 C 10,8 C 47 % 67 % 15 % 1001 hPa 0,0 l/m 11,9 km/h (2 Bft) 0 min
01.05.2021 20:09 22,2 C 15,1 C 10,8 C 47 % 67 % 15 % 1001 hPa 0,0 l/m 9,2 km/h (2 Bft) 0 min
01.05.2021 20:12 22,2 C 15,0 C 10,6 C 47 % 67 % 15 % 1001 hPa 0,0 l/m 8,7 km/h (2 Bft) 0 min
01.05.2021 20:15 22,2 C 15,0 C 10,6 C 47 % 68 % 15 % 1001 hPa 0,0 l/m 7,4 km/h (2 Bft) 0 min
01.05.2021 20:18 22,2 C 15,0 C 10,8 C 47 % 67 % 15 % 1001 hPa 0,0 l/m 8,0 km/h (2 Bft) 0 min
01.05.2021 20:21 22,2 C 15,0 C 10,7 C 47 % 67 % 15 % 1001 hPa 0,0 l/m 9,2 km/h (2 Bft) 0 min
01.05.2021 20:24 22,2 C 15,0 C 10,7 C 47 % 67 % 15 % 1001 hPa 0,0 l/m 8,5 km/h (2 Bft) 0 min
01.05.2021 20:27 22,2 C 15,0 C 10,6 C 47 % 68 % 15 % 1001 hPa 0,0 l/m 8,7 km/h (2 Bft) 0 min
01.05.2021 20:30 22,2 C 15,0 C 10,5 C 47 % 68 % 15 % 1001 hPa 0,0 l/m 7,6 km/h (2 Bft) 0 min
01.05.2021 20:33 22,2 C 15,0 C 10,7 C 47 % 68 % 15 % 1001 hPa 0,0 l/m 7,4 km/h (2 Bft) 0 min
01.05.2021 20:36 22,2 C 14,9 C 10,6 C 47 % 68 % 15 % 1001 hPa 0,0 l/m 5,9 km/h (2 Bft) 0 min
01.05.2021 20:39 22,2 C 14,9 C 10,5 C 47 % 68 % 15 % 1001 hPa 0,0 l/m 8,1 km/h (2 Bft) 0 min
01.05.2021 20:42 22,2 C 14,8 C 10,6 C 47 % 68 % 15 % 1001 hPa 0,0 l/m 10,2 km/h (2 Bft) 0 min
01.05.2021 20:45 22,2 C 14,8 C 10,6 C 47 % 68 % 15 % 1001 hPa 0,0 l/m 10,5 km/h (2 Bft) 0 min
01.05.2021 20:48 22,2 C 14,8 C 10,5 C 47 % 68 % 15 % 1001 hPa 0,0 l/m 7,1 km/h (2 Bft) 0 min
01.05.2021 20:51 22,2 C 14,8 C 10,6 C 47 % 68 % 15 % 1001 hPa 0,0 l/m 7,1 km/h (2 Bft) 0 min
01.05.2021 20:54 22,2 C 14,8 C 10,6 C 47 % 68 % 15 % 1001 hPa 0,0 l/m 12,6 km/h (3 Bft) 0 min
01.05.2021 20:57 22,2 C 14,8 C 10,4 C 47 % 68 % 15 % 1001 hPa 0,0 l/m 7,8 km/h (2 Bft) 0 min
01.05.2021 21:00 22,3 C 14,8 C 10,4 C 47 % 68 % 15 % 1001 hPa 0,0 l/m 7,9 km/h (2 Bft) 0 min
01.05.2021 21:03 22,3 C 14,7 C 10,4 C 47 % 68 % 15 % 1001 hPa 0,0 l/m 5,0 km/h (1 Bft) 0 min
01.05.2021 21:06 22,3 C 14,7 C 10,5 C 47 % 68 % 15 % 1001 hPa 0,0 l/m 9,3 km/h (2 Bft) 0 min
01.05.2021 21:09 22,3 C 14,7 C 10,4 C 47 % 68 % 15 % 1001 hPa 0,0 l/m 8,2 km/h (2 Bft) 0 min
01.05.2021 21:12 22,3 C 14,6 C 10,4 C 47 % 68 % 15 % 1001 hPa 0,0 l/m 12,7 km/h (3 Bft) 0 min
01.05.2021 21:15 22,3 C 14,6 C 10,4 C 47 % 68 % 15 % 1001 hPa 0,0 l/m 12,0 km/h (2 Bft) 0 min
01.05.2021 21:18 22,3 C 14,6 C 10,4 C 47 % 69 % 15 % 1001 hPa 0,0 l/m 12,0 km/h (2 Bft) 0 min
01.05.2021 21:21 22,3 C 14,6 C 10,5 C 47 % 69 % 15 % 1001 hPa 0,0 l/m 6,4 km/h (2 Bft) 0 min
01.05.2021 21:24 22,3 C 14,6 C 10,4 C 47 % 69 % 15 % 1001 hPa 0,0 l/m 7,2 km/h (2 Bft) 0 min
01.05.2021 21:27 22,3 C 14,6 C 10,4 C 47 % 69 % 15 % 1001 hPa 0,0 l/m 7,9 km/h (2 Bft) 0 min
01.05.2021 21:30 22,2 C 14,6 C 10,5 C 47 % 68 % 15 % 1001 hPa 0,0 l/m 8,0 km/h (2 Bft) 0 min
01.05.2021 21:33 22,3 C 14,6 C 10,4 C 47 % 69 % 15 % 1001 hPa 0,0 l/m 8,0 km/h (2 Bft) 0 min
01.05.2021 21:36 22,3 C 14,5 C 10,4 C 47 % 69 % 15 % 1001 hPa 0,0 l/m 6,0 km/h (2 Bft) 0 min
01.05.2021 21:39 22,3 C 14,5 C 10,3 C 47 % 70 % 15 % 1001 hPa 0,0 l/m 2,2 km/h (1 Bft) 0 min
01.05.2021 21:42 22,2 C 14,4 C 10,3 C 47 % 70 % 15 % 1001 hPa 0,0 l/m 6,5 km/h (2 Bft) 0 min
01.05.2021 21:45 22,3 C 14,4 C 10,3 C 47 % 69 % 15 % 1000 hPa 0,0 l/m 8,9 km/h (2 Bft) 0 min
01.05.2021 21:48 22,2 C 14,4 C 10,4 C 47 % 70 % 15 % 1000 hPa 0,0 l/m 9,9 km/h (2 Bft) 0 min
01.05.2021 21:51 22,2 C 14,4 C 10,4 C 47 % 70 % 15 % 1000 hPa 0,0 l/m 7,0 km/h (2 Bft) 0 min
01.05.2021 21:54 22,2 C 14,3 C 10,2 C 47 % 70 % 15 % 1000 hPa 0,0 l/m 7,0 km/h (2 Bft) 0 min
01.05.2021 21:57 22,2 C 14,3 C 10,2 C 47 % 70 % 15 % 1000 hPa 0,0 l/m 4,4 km/h (1 Bft) 0 min
01.05.2021 22:00 22,2 C 14,3 C 10,3 C 47 % 70 % 15 % 1000 hPa 0,0 l/m 6,7 km/h (2 Bft) 0 min
01.05.2021 22:03 22,2 C 14,2 C 10,1 C 47 % 70 % 15 % 1000 hPa 0,0 l/m 3,0 km/h (1 Bft) 0 min
01.05.2021 22:06 22,2 C 14,2 C 10,1 C 47 % 70 % 15 % 1000 hPa 0,0 l/m 7,3 km/h (2 Bft) 0 min
01.05.2021 22:09 22,3 C 14,2 C 10,2 C 47 % 70 % 15 % 1000 hPa 0,0 l/m 5,7 km/h (1 Bft) 0 min
01.05.2021 22:12 22,2 C 14,1 C 10,1 C 47 % 70 % 15 % 1000 hPa 0,0 l/m 5,5 km/h (1 Bft) 0 min
01.05.2021 22:15 22,2 C 14,1 C 10,1 C 47 % 70 % 15 % 1000 hPa 0,0 l/m 5,6 km/h (1 Bft) 0 min
01.05.2021 22:18 22,2 C 14,1 C 10,0 C 47 % 71 % 15 % 1000 hPa 0,0 l/m 5,9 km/h (2 Bft) 0 min
01.05.2021 22:21 22,2 C 14,0 C 10,0 C 47 % 71 % 15 % 1000 hPa 0,0 l/m 0,3 km/h (0 Bft) 0 min
01.05.2021 22:24 22,2 C 14,0 C 9,9 C 47 % 72 % 15 % 1000 hPa 0,0 l/m 1,6 km/h (1 Bft) 0 min
01.05.2021 22:27 22,3 C 14,0 C 9,9 C 47 % 72 % 15 % 1000 hPa 0,0 l/m 1,6 km/h (1 Bft) 0 min
01.05.2021 22:30 22,3 C 13,9 C 9,9 C 47 % 72 % 15 % 1000 hPa 0,0 l/m 0,0 km/h (0 Bft) 0 min
01.05.2021 22:33 22,2 C 13,9 C 9,9 C 47 % 72 % 15 % 1000 hPa 0,0 l/m 0,0 km/h (0 Bft) 0 min
01.05.2021 22:36 22,2 C 13,8 C 9,8 C 47 % 72 % 15 % 1000 hPa 0,0 l/m 0,0 km/h (0 Bft) 0 min
01.05.2021 22:39 22,2 C 13,8 C 9,9 C 47 % 72 % 15 % 1000 hPa 0,0 l/m 0,0 km/h (0 Bft) 0 min
01.05.2021 22:42 22,2 C 13,8 C 9,9 C 47 % 73 % 15 % 1000 hPa 0,0 l/m 0,0 km/h (0 Bft) 0 min
01.05.2021 22:45 22,2 C 13,8 C 9,8 C 47 % 72 % 15 % 1000 hPa 0,0 l/m 0,0 km/h (0 Bft) 0 min
01.05.2021 22:48 22,2 C 13,7 C 9,8 C 47 % 73 % 15 % 1000 hPa 0,0 l/m 0,0 km/h (0 Bft) 0 min
01.05.2021 22:51 22,2 C 13,7 C 9,8 C 47 % 73 % 15 % 1000 hPa 0,0 l/m 0,0 km/h (0 Bft) 0 min
01.05.2021 22:54 22,2 C 13,7 C 9,8 C 47 % 73 % 15 % 1000 hPa 0,0 l/m 0,0 km/h (0 Bft) 0 min
01.05.2021 22:57 22,2 C 13,6 C 9,7 C 47 % 73 % 15 % 1000 hPa 0,0 l/m 0,0 km/h (0 Bft) 0 min
01.05.2021 23:00 22,2 C 13,6 C 9,7 C 47 % 73 % 15 % 999 hPa 0,0 l/m 0,0 km/h (0 Bft) 0 min
01.05.2021 23:03 22,2 C 13,6 C 9,6 C 47 % 73 % 15 % 999 hPa 0,0 l/m 0,0 km/h (0 Bft) 0 min
01.05.2021 23:06 22,3 C 13,5 C 9,6 C 47 % 73 % 15 % 999 hPa 0,0 l/m 0,1 km/h (0 Bft) 0 min
01.05.2021 23:09 22,3 C 13,5 C 9,6 C 47 % 74 % 15 % 999 hPa 0,0 l/m 0,0 km/h (0 Bft) 0 min
01.05.2021 23:12 22,2 C 13,5 C 9,6 C 47 % 74 % 15 % 999 hPa 0,0 l/m 0,0 km/h (0 Bft) 0 min
01.05.2021 23:15 22,2 C 13,5 C 9,6 C 47 % 74 % 15 % 999 hPa 0,0 l/m 0,0 km/h (0 Bft) 0 min
01.05.2021 23:18 22,2 C 13,4 C 9,6 C 47 % 74 % 15 % 999 hPa 0,0 l/m 0,1 km/h (0 Bft) 0 min
01.05.2021 23:21 22,2 C 13,4 C 9,6 C 47 % 74 % 15 % 999 hPa 0,0 l/m 0,3 km/h (0 Bft) 0 min
01.05.2021 23:24 22,3 C 13,4 C 9,6 C 47 % 74 % 15 % 999 hPa 0,0 l/m 0,0 km/h (0 Bft) 0 min
01.05.2021 23:27 22,3 C 13,4 C 9,6 C 47 % 74 % 15 % 1000 hPa 0,0 l/m 0,0 km/h (0 Bft) 0 min
01.05.2021 23:30 22,3 C 13,4 C 9,6 C 47 % 74 % 15 % 999 hPa 0,0 l/m 0,0 km/h (0 Bft) 0 min
01.05.2021 23:33 22,2 C 13,3 C 9,6 C 47 % 74 % 15 % 999 hPa 0,0 l/m 0,0 km/h (0 Bft) 0 min
01.05.2021 23:36 22,2 C 13,3 C 9,6 C 47 % 74 % 15 % 999 hPa 0,0 l/m 0,4 km/h (0 Bft) 0 min
01.05.2021 23:39 22,2 C 13,3 C 9,6 C 47 % 74 % 15 % 999 hPa 0,0 l/m 0,3 km/h (0 Bft) 0 min
01.05.2021 23:42 22,2 C 13,3 C 9,5 C 47 % 74 % 15 % 999 hPa 0,0 l/m 0,0 km/h (0 Bft) 0 min
01.05.2021 23:45 22,3 C 13,3 C 9,6 C 47 % 74 % 15 % 999 hPa 0,0 l/m 1,0 km/h (0 Bft) 0 min
01.05.2021 23:48 22,2 C 13,3 C 9,6 C 47 % 74 % 15 % 999 hPa 0,0 l/m 2,2 km/h (1 Bft) 0 min
01.05.2021 23:51 22,2 C 13,2 C 9,6 C 47 % 75 % 15 % 999 hPa 0,0 l/m 1,3 km/h (1 Bft) 0 min
01.05.2021 23:54 22,2 C 13,2 C 9,5 C 47 % 75 % 15 % 999 hPa 0,0 l/m 1,8 km/h (1 Bft) 0 min
01.05.2021 23:57 22,2 C 13,2 C 9,4 C 47 % 76 % 15 % 999 hPa 0,0 l/m 1,8 km/h (1 Bft) 0 min
_ Min-Zeit 12:45 05:30 05:03 00:00 16:09 - 23:00 - 03:42 -
Minimum _ 21,6 C 8,4 C 6,1 C 45 % 62 % - 999 hPa - 0,0 km/h (0 Bft) -
_ Max-Zeit 00:30 16:39 17:51 12:21 05:06 00:00 07:48 00:00 00:00 00:00
Maximum _ 22,4 C 18,2 C 11,3 C 47 % 85 % 15 % 1009 hPa 0,0 l/m 16,8 km/h
N (3 Bft)
0 min
Durchschnitt _ 22,2 C 12,3 C 8,5 C 46 % 76 % #1:57 h 1006 hPa #0,0 l/m 4,7 km/h (1 Bft) #0 min.